Flag for France Weather past 2 weeks in Paris, France

Now
72 °F

Clear.


Feels Like: 77 °F
Forecast: 70 / 100 °F
Wind: 7 mph from Northeast

Location: Villacoublay

Current Time: Jun 30, 2015 at 2:11:48 AM

Latest Report: Jun 30, 2015 at 1:30 AM


Visibility: 10 mi

Pressure: 30.18 "Hg

Humidity: 53%

Dew point: 54 °F

Location of ParisLocation

Historic Weather in Paris — Graph

°F

Paris temperature yesterday

Maximum temperature yesterday: 82 °F (at 4:30 PM)
Minimum temperature yesterday: 59 °F (at 6:00 AM)
Average temperature yesterday: 72 °F

Past Weeks' High & Low Weather Summary

 TemperatureHumidityPressure
High88 °F (Jun 26, 4:30 PM)94% (Jun 18, 8:00 AM)30.30 "Hg (Jun 18, 8:00 AM)
Low48 °F (Jun 23, 4:00 AM)28% (Jun 29, 5:30 PM)29.83 "Hg (Jun 22, 6:30 PM)
Average65 °F64%30.13 "Hg
* Reported Jun 15 1:00 AM — Jun 30 1:00 AM, Paris, Weather by CustomWeather, © 2015

Note: Actual official high and low records may vary slightly from our data, if they occured in-between our weather recording intervals... More about our weather records

Advertising

Paris weather history for previous 24 hours

 ConditionsComfort  
Time TempWeatherWind HumidityBarometerVisibility
1:00 AM
Tue, Jun 30
72 °FClear.7 mph53%30.18 "Hg10 mi
12:30 AM72 °FClear.7 mph53%30.18 "Hg10 mi
12:00 AM73 °FClear.10 mph50%30.18 "Hg10 mi
11:30 PM
Mon, Jun 29
73 °FClear.7 mph41%30.18 "Hg10 mi
11:00 PM75 °FClear.6 mph36%30.18 "Hg10 mi
10:30 PM73 °FPassing clouds.5 mph38%30.18 "HgN/A
10:00 PM75 °FSunny.5 mph36%30.18 "Hg10 mi
9:30 PM77 °FPassing clouds.5 mph39%30.18 "HgN/A
9:00 PM79 °FPassing clouds.5 mph32%30.18 "HgN/A
8:30 PM81 °FPassing clouds.5 mph30%30.18 "HgN/A
8:00 PM81 °FPassing clouds.5 mph30%30.18 "HgN/A
7:30 PM81 °FSunny.N/A30%30.15 "Hg10 mi
7:00 PM82 °FSunny.3 mph28%30.15 "Hg10 mi
6:30 PM82 °FSunny.5 mph28%30.18 "Hg10 mi
6:00 PM81 °FPassing clouds.6 mph30%30.18 "HgN/A
5:30 PM82 °FPassing clouds.5 mph28%30.18 "HgN/A
5:00 PM82 °FPassing clouds.3 mph30%30.18 "HgN/A
4:30 PM82 °FSunny.N/A32%30.18 "Hg10 mi
4:00 PM81 °FPassing clouds.6 mph34%30.18 "HgN/A
3:30 PM81 °FPassing clouds.7 mph37%30.18 "HgN/A
3:00 PM79 °FPassing clouds.6 mph39%30.18 "HgN/A
2:30 PM79 °FPassing clouds.7 mph37%30.21 "HgN/A
2:00 PM79 °FSunny.7 mph39%30.21 "Hg10 mi
1:30 PM75 °FPassing clouds.7 mph50%30.21 "HgN/A
1:00 PM75 °FPassing clouds.5 mph47%30.21 "HgN/A
12:30 PM73 °FSunny.3 mph53%30.21 "Hg10 mi
12:00 PM73 °FPassing clouds.5 mph47%30.21 "HgN/A
11:30 AM72 °FSunny.N/A50%30.21 "Hg10 mi
11:00 AM70 °FPassing clouds.3 mph57%30.21 "HgN/A
10:30 AM68 °FPassing clouds.6 mph64%30.21 "HgN/A
10:00 AM68 °FPassing clouds.5 mph64%30.21 "HgN/A
9:30 AM66 °FPassing clouds.8 mph64%30.21 "HgN/A
9:00 AM64 °FPassing clouds.5 mph68%30.21 "HgN/A
8:30 AM63 °FPassing clouds.5 mph73%30.21 "HgN/A
8:00 AM63 °FPassing clouds.6 mph68%30.21 "HgN/A
7:30 AM61 °FPassing clouds.6 mph72%30.21 "HgN/A
7:00 AM59 °FSunny.7 mph72%30.18 "Hg10 mi
6:30 AM61 °FClear.8 mph68%30.18 "Hg10 mi
6:00 AM59 °FClear.7 mph68%30.18 "Hg10 mi
5:00 AM61 °FPassing clouds.5 mph63%30.15 "HgN/A
4:30 AM61 °FPassing clouds.6 mph63%30.18 "HgN/A
4:00 AM63 °FClear.7 mph59%30.18 "Hg10 mi
3:30 AM63 °FPassing clouds.8 mph59%30.18 "HgN/A
2:30 AM64 °FPassing clouds.10 mph56%30.15 "HgN/A
2:00 AM64 °FPassing clouds.9 mph60%30.15 "HgN/A
Weather by CustomWeather, © 2015

See weather overviewHow to use our weather pages